Time,TemperatureF,DewpointF,PressureIn,WindDirection,WindDirectionDegrees,WindSpeedMPH,WindSpeedGustMPH,Humidity,HourlyPrecipIn,Conditions,Clouds,dailyrainin,SolarRadiationWatts/m^2,SoftwareType,DateUTC
2013-07-06 00:00:00,70.0,56.0,-100.00,SSW,202,5.0,-999.0,61,-99.99,,,-99.99,0.000000,,2013-07-06 05:00:00,
2013-07-06 00:34:00,70.0,56.0,-100.00,SSW,202,5.0,-999.0,61,-99.99,,,-99.99,0.000000,,2013-07-06 05:34:00,
2013-07-06 00:43:00,70.0,56.0,-100.00,SSW,202,5.0,-999.0,61,-99.99,,,-99.99,0.000000,,2013-07-06 05:43:00,
2013-07-06 00:53:00,70.0,56.0,-100.00,SSW,202,5.0,-999.0,61,-99.99,,,-99.99,0.000000,,2013-07-06 05:53:00,
2013-07-06 01:00:00,70.0,56.0,-100.00,SSW,202,5.0,-999.0,62,-99.99,,,-99.99,0.000000,,2013-07-06 06:00:00,
2013-07-06 01:43:00,70.0,56.0,-100.00,SSW,202,5.0,-999.0,62,-99.99,,,-99.99,0.000000,,2013-07-06 06:43:00,
2013-07-06 01:53:00,70.0,56.0,-100.00,SSW,202,5.0,-999.0,62,-99.99,,,-99.99,0.000000,,2013-07-06 06:53:00,
2013-07-06 03:00:00,68.0,57.0,-100.00,SSW,202,3.0,-999.0,68,-99.99,,,-99.99,0.000000,,2013-07-06 08:00:00,
2013-07-06 03:43:00,68.0,57.0,-100.00,SSW,202,3.0,-999.0,68,-99.99,,,-99.99,0.000000,,2013-07-06 08:43:00,
2013-07-06 03:54:00,68.0,57.0,-100.00,SSW,202,3.0,-999.0,68,-99.99,,,-99.99,0.000000,,2013-07-06 08:54:00,
2013-07-06 04:00:00,67.0,58.0,-100.00,SSW,202,3.0,-999.0,71,-99.99,,,-99.99,0.000000,,2013-07-06 09:00:00,
2013-07-06 04:43:00,67.0,58.0,-100.00,SSW,202,3.0,-999.0,71,-99.99,,,-99.99,0.000000,,2013-07-06 09:43:00,
2013-07-06 04:53:00,67.0,58.0,-100.00,SSW,202,3.0,-999.0,71,-99.99,,,-99.99,0.000000,,2013-07-06 09:53:00,
2013-07-06 05:00:00,67.0,58.0,-100.00,SSW,202,3.0,-999.0,72,-99.99,,,-99.99,0.000000,,2013-07-06 10:00:00,
2013-07-06 05:43:00,67.0,58.0,-100.00,SSW,202,3.0,-999.0,72,-99.99,,,-99.99,0.000000,,2013-07-06 10:43:00,
2013-07-06 05:53:00,67.0,58.0,-100.00,SSW,202,3.0,-999.0,72,-99.99,,,-99.99,0.000000,,2013-07-06 10:53:00,
2013-07-06 06:00:00,67.0,58.0,-100.00,SSW,202,3.0,-999.0,74,-99.99,,,-99.99,13.920000,,2013-07-06 11:00:00,
2013-07-06 06:43:00,67.0,58.0,-100.00,SSW,202,3.0,-999.0,74,-99.99,,,-99.99,13.920000,,2013-07-06 11:43:00,
2013-07-06 06:53:00,67.0,58.0,-100.00,SSW,202,3.0,-999.0,74,-99.99,,,-99.99,13.920000,,2013-07-06 11:53:00,
2013-07-06 07:00:00,70.0,59.0,-100.00,SW,225,3.0,-999.0,69,-99.99,,,-99.99,119.480003,,2013-07-06 12:00:00,
2013-07-06 07:43:00,70.0,59.0,-100.00,SW,225,3.0,-999.0,69,-99.99,,,-99.99,119.480003,,2013-07-06 12:43:00,
2013-07-06 07:52:00,70.0,59.0,-100.00,SW,225,3.0,-999.0,69,-99.99,,,-99.99,119.480003,,2013-07-06 12:52:00,
2013-07-06 08:00:00,72.0,61.0,-100.00,SSW,202,4.0,-999.0,67,-99.99,,,-99.99,302.760010,,2013-07-06 13:00:00,
2013-07-06 08:43:00,72.0,61.0,-100.00,SSW,202,4.0,-999.0,67,-99.99,,,-99.99,302.760010,,2013-07-06 13:43:00,
2013-07-06 08:52:00,72.0,61.0,-100.00,SSW,202,4.0,-999.0,67,-99.99,,,-99.99,302.760010,,2013-07-06 13:52:00,
2013-07-06 09:00:00,76.0,62.0,-100.00,SSW,202,4.0,-999.0,62,-99.99,,,-99.99,476.760010,,2013-07-06 14:00:00,
2013-07-06 09:34:00,76.0,62.0,-100.00,SSW,202,4.0,-999.0,62,-99.99,,,-99.99,476.760010,,2013-07-06 14:34:00,
2013-07-06 09:42:00,76.0,62.0,-100.00,SSW,202,4.0,-999.0,62,-99.99,,,-99.99,476.760010,,2013-07-06 14:42:00,
2013-07-06 09:53:00,76.0,62.0,-100.00,SSW,202,4.0,-999.0,62,-99.99,,,-99.99,476.760010,,2013-07-06 14:53:00,
2013-07-06 10:00:00,80.0,63.0,-100.00,SW,225,4.0,-999.0,55,-99.99,,,-99.99,639.159973,,2013-07-06 15:00:00,
2013-07-06 10:43:00,80.0,63.0,-100.00,SW,225,4.0,-999.0,55,-99.99,,,-99.99,639.159973,,2013-07-06 15:43:00,
2013-07-06 10:53:00,80.0,63.0,-100.00,SW,225,4.0,-999.0,55,-99.99,,,-99.99,639.159973,,2013-07-06 15:53:00,
2013-07-06 12:00:00,84.0,62.0,-100.00,SW,225,5.0,-999.0,47,-99.99,,,-99.99,838.679993,,2013-07-06 17:00:00,
2013-07-06 13:00:00,85.0,63.0,-100.00,SW,225,4.0,-999.0,48,-99.99,,,-99.99,854.919983,,2013-07-06 18:00:00,
2013-07-06 14:00:00,82.0,64.0,-100.00,South,180,5.0,-999.0,55,-99.99,,,-99.99,600.880005,,2013-07-06 19:00:00,
2013-07-06 15:00:00,82.0,63.0,-100.00,South,180,8.0,-999.0,51,-99.99,,,-99.99,824.760010,,2013-07-06 20:00:00,
2013-07-06 16:00:00,81.0,59.0,-100.00,South,180,9.0,-999.0,47,-99.99,,,-99.99,728.479980,,2013-07-06 21:00:00,
2013-07-06 17:00:00,80.0,59.0,-100.00,South,180,8.0,-999.0,49,-99.99,,,-99.99,595.080017,,2013-07-06 22:00:00,
2013-07-06 20:00:00,75.0,59.0,-100.00,South,180,6.0,-999.0,56,-99.99,,,-99.99,110.199997,,2013-07-07 01:00:00,
2013-07-06 21:00:00,73.0,59.0,-100.00,South,180,5.0,-999.0,61,-99.99,,,-99.99,9.280000,,2013-07-07 02:00:00,
2013-07-06 22:00:00,72.0,59.0,-100.00,South,180,5.0,-999.0,63,-99.99,,,-99.99,0.000000,,2013-07-07 03:00:00,
2013-07-06 23:00:00,72.0,60.0,-100.00,SSW,202,5.0,-999.0,67,-99.99,,,-99.99,0.000000,,2013-07-07 04:00:00,
2013-07-06 23:41:00,72.0,60.0,-100.00,SSW,202,5.0,-999.0,67,-99.99,,,-99.99,0.000000,,2013-07-07 04:41:00,
2013-07-06 23:51:00,72.0,60.0,-100.00,SSW,202,5.0,-999.0,67,-99.99,,,-99.99,0.000000,,2013-07-07 04:51:00,